Weather History for Mount Holly, NJ

Change the Weather History Date:

Thursday, April 11, 2013

  Actual Average (KWRI) Record (KWRI)
Temperature  
Mean Temperature 60 °F -  
Max Temperature 71 °F 60 °F 85 °F (2011)
Min Temperature 48 °F 39 °F 25 °F (2007)
Degree Days  
Heating Degree Days 6    
Growing Degree Days 10 (Base 50)    
Moisture  
Dew Point 54 °F    
Average Humidity 86    
Maximum Humidity 100    
Minimum Humidity 72    
Precipitation  
Precipitation 0.06 in - - ()
Sea Level Pressure  
Sea Level Pressure 29.91 in    
Wind  
Wind Speed 5 mph (East)    
Max Wind Speed 13 mph    
Max Gust Speed 21 mph    
Visibility 7 miles    
Events Fog , Rain    
Averages and records for this station are not official NWS values.
T = Trace of Precipitation, MM = Missing Value Source: NWS Daily Summary

Daily Weather History Graph

Daily Weather History Graph

Search for Another Location

Airport:

Trip Planner

Search our weather history database for the weather conditions in past years. The results will help you decide how hot, cold, wet, or windy it might be!

Date:

Astronomy

Apr. 11, 2013 Rise Set
Actual Time 6:27 AM EDT 7:33 PM EDT
Civil Twilight 5:59 AM EDT 8:01 PM EDT
Nautical Twilight 5:26 AM EDT 8:35 PM EDT
Astronomical Twilight 4:51 AM EDT 9:09 PM EDT
Moon 6:57 AM EDT (4/11) 9:05 PM EDT (4/11)
Length of Visible Light 14h 02m
Length of Day
13h 06m
New Moon, 2% of the Moon is Illuminated
Apr 11
New Moon
Apr 18
First Quarter
Apr 25
Full
May 2
Last Quarter
May 9
New

Hourly Weather History & Observations

Time (EDT) Temp. Dew Point Humidity Pressure Visibility Wind Dir Wind Speed Gust Speed Precip Events Conditions
12:11 AM 62.6 °F 60.8 °F 94% 29.88 in 2.5 mi SSE 4.6 mph - 0.06 in Rain Light Rain
12:18 AM 62.6 °F 60.8 °F 94% 29.87 in 10.0 mi SSE 5.8 mph - 0.06 in Rain Light Rain
12:54 AM 62.1 °F 60.1 °F 93% 29.88 in 10.0 mi Calm Calm - 0.06 in   Mostly Cloudy
1:54 AM 61.0 °F 60.1 °F 97% 29.86 in 8.0 mi Calm Calm - N/A   Mostly Cloudy
2:54 AM 61.0 °F 59.0 °F 93% 29.80 in 9.0 mi Calm Calm - N/A   Unknown
3:54 AM 61.0 °F 59.0 °F 93% 29.81 in 10.0 mi South 3.5 mph - N/A   Clear
4:54 AM 60.1 °F 57.9 °F 93% 29.85 in 10.0 mi Calm Calm - N/A   Clear
5:54 AM 59.0 °F 57.9 °F 96% 29.87 in 6.0 mi Calm Calm - N/A   Clear
6:02 AM 57.2 °F 57.2 °F 100% 29.88 in 1.5 mi Calm Calm - N/A   Clear
6:04 AM 57.2 °F 57.2 °F 100% 29.88 in 0.8 mi Calm Calm - N/A   Clear
6:39 AM 57.2 °F 55.4 °F 94% 29.89 in 0.2 mi Calm Calm - N/A Fog Fog
6:54 AM 57.0 °F 55.9 °F 96% 29.90 in 0.2 mi Calm Calm - N/A Fog Fog
7:25 AM 57.2 °F 57.2 °F 100% 29.90 in 1.5 mi Calm Calm - N/A   Scattered Clouds
7:27 AM 57.2 °F 57.2 °F 100% 29.90 in 3.0 mi Calm Calm - N/A   Scattered Clouds
7:54 AM 61.0 °F 60.1 °F 97% 29.90 in 9.0 mi Calm Calm - N/A   Clear
8:54 AM 64.9 °F 61.0 °F 87% 29.89 in 10.0 mi Calm Calm - N/A   Clear
9:54 AM 68.0 °F 61.0 °F 78% 29.89 in 10.0 mi North 3.5 mph - N/A   Partly Cloudy
10:36 AM 71.6 °F 62.6 °F 73% 29.90 in 10.0 mi North 6.9 mph - N/A   Mostly Cloudy
10:54 AM 68.0 °F 60.1 °F 76% 29.91 in 10.0 mi NNE 6.9 mph - N/A   Overcast
11:45 AM 62.6 °F 59.0 °F 88% 29.92 in 4.0 mi ENE 10.4 mph - N/A   Overcast
11:54 AM 62.1 °F 59.0 °F 90% 29.93 in 3.0 mi NE 10.4 mph - N/A   Overcast
12:06 PM 60.8 °F 57.2 °F 88% 29.93 in 2.5 mi NE 8.1 mph - N/A   Overcast
12:39 PM 60.8 °F 55.4 °F 82% 29.93 in 3.0 mi ENE 9.2 mph - N/A   Overcast
1:03 PM 60.8 °F 55.4 °F 82% 29.92 in 6.0 mi ENE 10.4 mph - N/A   Haze
1:54 PM 61.0 °F 54.0 °F 78% 29.93 in 8.0 mi East 10.4 mph - N/A   Overcast
2:15 PM 60.8 °F 53.6 °F 77% 29.93 in 8.0 mi East 10.4 mph - N/A   Overcast
2:54 PM 59.0 °F 52.0 °F 78% 29.91 in 7.0 mi East 11.5 mph 19.6 mph N/A   Overcast
3:02 PM 59.0 °F 51.8 °F 77% 29.91 in 7.0 mi East 11.5 mph 17.3 mph N/A   Overcast
3:35 PM 59.0 °F 51.8 °F 77% 29.91 in 10.0 mi East 10.4 mph - N/A   Overcast
3:54 PM 60.1 °F 51.1 °F 72% 29.91 in 10.0 mi East 8.1 mph 17.3 mph N/A   Overcast
4:54 PM 57.0 °F 48.9 °F 74% 29.93 in 10.0 mi East 8.1 mph 20.7 mph N/A   Overcast
5:54 PM 55.0 °F 46.9 °F 74% 29.94 in 10.0 mi ESE 10.4 mph 18.4 mph N/A   Overcast
6:54 PM 53.1 °F 46.0 °F 77% 29.95 in 10.0 mi East 6.9 mph - N/A   Mostly Cloudy
7:05 PM 51.8 °F 44.6 °F 76% 29.95 in 10.0 mi East 10.4 mph 19.6 mph N/A   Scattered Clouds
7:14 PM 51.8 °F 44.6 °F 76% 29.95 in 10.0 mi East 11.5 mph 17.3 mph N/A   Mostly Cloudy
7:46 PM 50.0 °F 44.6 °F 82% 29.95 in 10.0 mi ENE 6.9 mph - N/A   Scattered Clouds
7:54 PM 50.0 °F 44.1 °F 80% 29.95 in 10.0 mi East 11.5 mph 17.3 mph N/A   Partly Cloudy
8:46 PM 48.2 °F 44.6 °F 87% 29.95 in 10.0 mi East 11.5 mph 16.1 mph N/A   Mostly Cloudy
8:54 PM 48.9 °F 44.1 °F 83% 29.95 in 10.0 mi East 12.7 mph 20.7 mph N/A   Mostly Cloudy
9:54 PM 48.9 °F 45.0 °F 86% 29.97 in 10.0 mi East 9.2 mph - N/A   Overcast
10:54 PM 48.0 °F 45.0 °F 89% 29.97 in 10.0 mi East 8.1 mph - N/A   Overcast
11:54 PM 48.0 °F 44.1 °F 86% 29.96 in 10.0 mi ENE 8.1 mph - N/A   Overcast